Home > Weather > Kumamoto > Past weeks

Flag for Japan Past Weather in Kumamoto, Japan — Yesterday and Last 2 Weeks

Now
79 °F

Warm.


Feels Like: 82 °F
Forecast: 75 / 93 °F
Wind: No wind

Location: Kumamoto

Current Time: Jul 30, 2016 at 5:00:50 AM

Latest Report: Jul 30, 2016 at 4:00 AM


Visibility: N/A

Pressure: 29.88 "Hg

Humidity: 86%

Dew Point: 74 °F

Location of KumamotoLocation

Past Weather in Kumamoto — Graph

°F

Kumamoto Temperature Yesterday

Maximum temperature yesterday: 96 °F (at 1:00 PM)
Minimum temperature yesterday: 78 °F (at 5:00 PM)
Average temperature yesterday: 86 °F

High & Low Weather Summary for the Past Weeks

 TemperatureHumidityPressure
High96 °F (Jul 29, 1:00 PM)99% (Jul 17, 12:00 AM)29.91 "Hg (Jul 17, 12:00 AM)
Low73 °F (Jul 15, 6:00 AM)37% (Jul 28, 4:00 PM)29.60 "Hg (Jul 15, 6:00 PM)
Average84 °F73%29.80 "Hg
* Reported Jul 15 3:00 AM — Jul 30 3:00 AM, Kumamoto, Weather by CustomWeather, © 2016

Note: Actual official high and low records may vary slightly from our data, if they occured in-between our weather recording intervals... More about our weather records

Advertising

Kumamoto Weather History for the Previous 24 Hours

Scroll right to see more
 ConditionsComfort  
Time TempWeatherWind HumidityBarometerVisibility
3:00 AM
Sat, Jul 30
80 °FOvercast.1 mph81%29.88 "Hg12 mi
2:00 AM80 °FWarm.1 mph80%29.88 "HgN/A
1:00 AM81 °FWarm.2 mph81%29.87 "HgN/A
12:00 AM82 °FWarm.No wind75%29.87 "HgN/A
11:00 PM
Fri, Jul 29
82 °FWarm.1 mph76%29.86 "HgN/A
10:00 PM82 °FWarm.1 mph81%29.86 "HgN/A
9:00 PM82 °FPassing clouds.1 mph83%29.85 "Hg12 mi
8:00 PM82 °FWarm.1 mph86%29.84 "HgN/A
7:00 PM82 °FWarm.2 mph82%29.83 "HgN/A
6:00 PM80 °FOvercast.5 mph90%29.84 "Hg16 mi
5:00 PM78 °FWarm.16 mph92%29.84 "HgN/A
4:00 PM89 °FHot.12 mph62%29.82 "HgN/A
3:00 PM92 °FScattered clouds.5 mph55%29.82 "Hg19 mi
2:00 PM94 °FExtremely hot.3 mph56%29.82 "HgN/A
1:00 PM96 °FExtremely hot.6 mph49%29.83 "HgN/A
12:00 PM92 °FPassing clouds.3 mph52%29.85 "Hg19 mi
9:00 AM86 °FPassing clouds.3 mph64%29.87 "Hg19 mi
Weather by CustomWeather, © 2016

See weather overviewHow to use our weather pages